Location: Aboncourt
(47.7710°N, 5.9826°E)
Time: 03:28:18
(UTC+00:00)

USA 245 - Pass Details

Date: 05 July 2020
Orbit: 271 x 1010 km, 97.9° (Epoch: 01 August)

Event Time Altitude Azimuth Distance (km) Brightness Sun altitude
Exits shadow 21:08:30 - 194° (SSW) 1,618 5.3 -11.7°
Reaches altitude 10° 21:08:41 10° 195° (SSW) 1,543 5.2 -11.7°
Maximum altitude 21:11:47 37° 265° (W) 797 4.4 -12.0°
Drops below altitude 10° 21:15:38 10° 333° (NNW) 1,936 7.6 -12.4°
Sets 21:18:14 0° 341° (NNW) 2,992 8.7 -12.6°
